Year,Month,Day,Hour,Minute,Value (Times are PST for temperature in C)
2019,04,27,00,00,6.40
2019,04,27,00,01,6.40
2019,04,27,00,02,6.40
2019,04,27,00,03,6.40
2019,04,27,00,04,6.40
2019,04,27,00,05,6.30
2019,04,27,00,06,6.30
2019,04,27,00,07,6.30
2019,04,27,00,08,6.30
2019,04,27,00,09,6.30
2019,04,27,00,10,6.30
2019,04,27,00,11,6.30
2019,04,27,00,12,6.20
2019,04,27,00,13,6.20
2019,04,27,00,14,6.20
2019,04,27,00,15,6.20
2019,04,27,00,16,6.20
2019,04,27,00,17,6.20
2019,04,27,00,18,6.20
2019,04,27,00,19,6.20
2019,04,27,00,20,6.20
2019,04,27,00,21,6.20
2019,04,27,00,22,6.20
2019,04,27,00,23,6.20
2019,04,27,00,24,6.20
2019,04,27,00,25,6.20
2019,04,27,00,26,6.20
2019,04,27,00,27,6.20
2019,04,27,00,28,6.20
2019,04,27,00,29,6.20
2019,04,27,00,30,6.20
2019,04,27,00,31,6.20
2019,04,27,00,32,6.20
2019,04,27,00,33,6.20
2019,04,27,00,34,6.20
2019,04,27,00,35,6.20
2019,04,27,00,36,6.30
2019,04,27,00,37,6.30
2019,04,27,00,38,6.30
2019,04,27,00,39,6.30
2019,04,27,00,40,6.30
2019,04,27,00,41,6.30
2019,04,27,00,42,6.30
2019,04,27,00,43,6.40
2019,04,27,00,44,6.40
2019,04,27,00,45,6.40
2019,04,27,00,46,6.40
2019,04,27,00,47,6.40
2019,04,27,00,48,6.40
2019,04,27,00,49,6.40
2019,04,27,00,50,6.50
2019,04,27,00,51,6.50
2019,04,27,00,52,6.50
2019,04,27,00,53,6.50
2019,04,27,00,54,6.60
2019,04,27,00,55,6.60
2019,04,27,00,56,6.60
2019,04,27,00,57,6.60
2019,04,27,00,58,6.60
2019,04,27,00,59,6.60
2019,04,27,01,00,6.60
2019,04,27,01,01,6.60
2019,04,27,01,02,6.60
2019,04,27,01,03,6.60
2019,04,27,01,04,6.60
2019,04,27,01,05,6.60
2019,04,27,01,06,6.60
2019,04,27,01,07,6.60
2019,04,27,01,08,6.60
2019,04,27,01,09,6.50
2019,04,27,01,10,6.50
2019,04,27,01,11,6.50
2019,04,27,01,12,6.50
2019,04,27,01,13,6.50
2019,04,27,01,14,6.50
2019,04,27,01,15,6.50
2019,04,27,01,16,6.50
2019,04,27,01,17,6.50
2019,04,27,01,18,6.50
2019,04,27,01,19,6.50
2019,04,27,01,20,6.50
2019,04,27,01,21,6.50
2019,04,27,01,22,6.50
2019,04,27,01,23,6.50
2019,04,27,01,24,6.50
2019,04,27,01,25,6.50
2019,04,27,01,26,6.50
2019,04,27,01,27,6.50
2019,04,27,01,28,6.50
2019,04,27,01,29,6.50
2019,04,27,01,30,6.50
2019,04,27,01,31,6.40
2019,04,27,01,32,6.40
2019,04,27,01,33,6.50
2019,04,27,01,34,6.40
2019,04,27,01,35,6.40
2019,04,27,01,36,6.40
2019,04,27,01,37,6.40
2019,04,27,01,38,6.40
2019,04,27,01,39,6.40
2019,04,27,01,40,6.40
2019,04,27,01,41,6.40
2019,04,27,01,42,6.40
2019,04,27,01,43,6.40
2019,04,27,01,44,6.40
2019,04,27,01,45,6.30
2019,04,27,01,46,6.30
2019,04,27,01,47,6.30
2019,04,27,01,48,6.30
2019,04,27,01,49,6.30
2019,04,27,01,50,6.30
2019,04,27,01,51,6.30
2019,04,27,01,52,6.30
2019,04,27,01,53,6.30
2019,04,27,01,54,6.20
2019,04,27,01,55,6.20
2019,04,27,01,56,6.20
2019,04,27,01,57,6.20
2019,04,27,01,58,6.10
2019,04,27,01,59,6.10
2019,04,27,02,00,6.10
2019,04,27,02,01,6.10
2019,04,27,02,02,6.00
2019,04,27,02,03,6.00
2019,04,27,02,04,6.00
2019,04,27,02,05,5.90
2019,04,27,02,06,5.90
2019,04,27,02,07,5.90
2019,04,27,02,08,5.80
2019,04,27,02,09,5.80
2019,04,27,02,10,5.80
2019,04,27,02,11,5.70
2019,04,27,02,12,5.70
2019,04,27,02,13,5.70
2019,04,27,02,14,5.70
2019,04,27,02,15,5.60
2019,04,27,02,16,5.60
2019,04,27,02,17,5.60
2019,04,27,02,18,5.50
2019,04,27,02,19,5.50
2019,04,27,02,20,5.50
2019,04,27,02,21,5.40
2019,04,27,02,22,5.40
2019,04,27,02,23,5.40
2019,04,27,02,24,5.30
2019,04,27,02,25,5.30
2019,04,27,02,26,5.20
2019,04,27,02,27,5.20
2019,04,27,02,28,5.20
2019,04,27,02,29,5.10
2019,04,27,02,30,5.00
2019,04,27,02,31,5.00
2019,04,27,02,32,4.90
2019,04,27,02,33,4.90
2019,04,27,02,34,4.90
2019,04,27,02,35,4.90
2019,04,27,02,36,4.90
2019,04,27,02,37,4.90
2019,04,27,02,38,4.90
2019,04,27,02,39,5.00
2019,04,27,02,40,5.00
2019,04,27,02,41,5.00
2019,04,27,02,42,5.00
2019,04,27,02,43,5.00
2019,04,27,02,44,5.10
2019,04,27,02,45,5.10
2019,04,27,02,46,5.10
2019,04,27,02,47,5.10
2019,04,27,02,48,5.10
2019,04,27,02,49,5.10
2019,04,27,02,50,5.10
2019,04,27,02,51,5.10
2019,04,27,02,52,5.10
2019,04,27,02,53,5.10
2019,04,27,02,54,5.10
2019,04,27,02,55,5.10
2019,04,27,02,56,5.10
2019,04,27,02,57,5.10
2019,04,27,02,58,5.10
2019,04,27,02,59,5.10
2019,04,27,03,00,5.10
2019,04,27,03,01,5.10
2019,04,27,03,02,5.10
2019,04,27,03,03,5.10
2019,04,27,03,04,5.10
2019,04,27,03,05,5.10
2019,04,27,03,06,5.10
2019,04,27,03,07,5.00
2019,04,27,03,08,5.00
2019,04,27,03,09,5.00
2019,04,27,03,10,5.00
2019,04,27,03,11,5.00
2019,04,27,03,12,5.00
2019,04,27,03,13,5.00
2019,04,27,03,14,4.90
2019,04,27,03,15,4.90
2019,04,27,03,16,4.90
2019,04,27,03,17,4.90
2019,04,27,03,18,4.90
2019,04,27,03,19,4.90
2019,04,27,03,20,4.90
2019,04,27,03,21,4.90
2019,04,27,03,22,4.90
2019,04,27,03,23,4.90
2019,04,27,03,24,4.90
2019,04,27,03,25,4.90
2019,04,27,03,26,4.90
2019,04,27,03,27,4.80
2019,04,27,03,28,4.80
2019,04,27,03,29,4.80
2019,04,27,03,30,4.80
2019,04,27,03,31,4.80
2019,04,27,03,32,4.80
2019,04,27,03,33,4.80
2019,04,27,03,34,4.80
2019,04,27,03,35,4.70
2019,04,27,03,36,4.60
2019,04,27,03,37,4.60
2019,04,27,03,38,4.50
2019,04,27,03,39,4.40
2019,04,27,03,40,4.40
2019,04,27,03,41,4.30
2019,04,27,03,42,4.30
2019,04,27,03,43,4.20
2019,04,27,03,44,4.20
2019,04,27,03,45,4.10
2019,04,27,03,46,4.00
2019,04,27,03,47,3.90
2019,04,27,03,48,3.80
2019,04,27,03,49,3.70
2019,04,27,03,50,3.70
2019,04,27,03,51,3.60
2019,04,27,03,52,3.60
2019,04,27,03,53,3.60
2019,04,27,03,54,3.50
2019,04,27,03,55,3.50
2019,04,27,03,56,3.50
2019,04,27,03,57,3.50
2019,04,27,03,58,3.50
2019,04,27,03,59,3.60
2019,04,27,04,00,3.70
2019,04,27,04,01,3.70
2019,04,27,04,02,3.80
2019,04,27,04,03,3.80
2019,04,27,04,04,3.80
2019,04,27,04,05,3.90
2019,04,27,04,06,3.90
2019,04,27,04,07,4.00
2019,04,27,04,08,4.10
2019,04,27,04,09,4.10
2019,04,27,04,10,4.20
2019,04,27,04,11,4.20
2019,04,27,04,12,4.30
2019,04,27,04,13,4.40
2019,04,27,04,14,4.40
2019,04,27,04,15,4.50
2019,04,27,04,16,4.60
2019,04,27,04,17,4.60
2019,04,27,04,18,4.70
2019,04,27,04,19,4.70
2019,04,27,04,20,4.70
2019,04,27,04,21,4.70
2019,04,27,04,22,4.70
2019,04,27,04,23,4.70
2019,04,27,04,24,4.70
2019,04,27,04,25,4.60
2019,04,27,04,26,4.60
2019,04,27,04,27,4.50
2019,04,27,04,28,4.50
2019,04,27,04,29,4.40
2019,04,27,04,30,4.40
2019,04,27,04,31,4.30
2019,04,27,04,32,4.30
2019,04,27,04,33,4.20
2019,04,27,04,34,4.20
2019,04,27,04,35,4.20
2019,04,27,04,36,4.20
2019,04,27,04,37,4.10
2019,04,27,04,38,4.00
2019,04,27,04,39,4.00
2019,04,27,04,40,4.00
2019,04,27,04,41,3.90
2019,04,27,04,42,3.90
2019,04,27,04,43,3.90
2019,04,27,04,44,3.80
2019,04,27,04,45,3.80
2019,04,27,04,46,3.80
2019,04,27,04,47,3.80
2019,04,27,04,48,3.70
2019,04,27,04,49,3.70
2019,04,27,04,50,3.70
2019,04,27,04,51,3.60
2019,04,27,04,52,3.60
2019,04,27,04,53,3.50
2019,04,27,04,54,3.50
2019,04,27,04,55,3.40
2019,04,27,04,56,3.30
2019,04,27,04,57,3.20
2019,04,27,04,58,3.20
2019,04,27,04,59,3.10
2019,04,27,05,00,3.00
2019,04,27,05,01,3.00
2019,04,27,05,02,2.90
2019,04,27,05,03,2.80
2019,04,27,05,04,2.80
2019,04,27,05,05,2.70
2019,04,27,05,06,2.70
2019,04,27,05,07,2.70
2019,04,27,05,08,2.70
2019,04,27,05,09,2.60
2019,04,27,05,10,2.60
2019,04,27,05,11,2.60
2019,04,27,05,12,2.50
2019,04,27,05,13,2.50
2019,04,27,05,14,2.50
2019,04,27,05,15,2.40
2019,04,27,05,16,2.40
2019,04,27,05,17,2.40
2019,04,27,05,18,2.30
2019,04,27,05,19,2.30
2019,04,27,05,20,2.30
2019,04,27,05,21,2.30
2019,04,27,05,22,2.20
2019,04,27,05,23,2.20
2019,04,27,05,24,2.20
2019,04,27,05,25,2.20
2019,04,27,05,26,2.20
2019,04,27,05,27,2.20
2019,04,27,05,28,2.20
2019,04,27,05,29,2.20
2019,04,27,05,30,2.20
2019,04,27,05,31,2.10
2019,04,27,05,32,2.10
2019,04,27,05,33,2.10
2019,04,27,05,34,2.10
2019,04,27,05,35,2.10
2019,04,27,05,36,2.10
2019,04,27,05,37,2.10
2019,04,27,05,38,2.10
2019,04,27,05,39,2.10
2019,04,27,05,40,2.10
2019,04,27,05,41,2.10
2019,04,27,05,42,2.00
2019,04,27,05,43,2.00
2019,04,27,05,44,2.00
2019,04,27,05,45,2.00
2019,04,27,05,46,2.00
2019,04,27,05,47,2.00
2019,04,27,05,48,2.00
2019,04,27,05,49,2.00
2019,04,27,05,50,2.00
2019,04,27,05,51,2.00
2019,04,27,05,52,2.00
2019,04,27,05,53,2.00
2019,04,27,05,54,2.00
2019,04,27,05,55,2.00
2019,04,27,05,56,2.00
2019,04,27,05,57,2.00
2019,04,27,05,58,2.00
2019,04,27,05,59,2.00
2019,04,27,06,00,2.00
2019,04,27,06,01,2.00
2019,04,27,06,02,2.00
2019,04,27,06,03,2.00
2019,04,27,06,04,2.00
2019,04,27,06,05,2.00
2019,04,27,06,06,1.90
2019,04,27,06,07,1.90
2019,04,27,06,08,1.90
2019,04,27,06,09,1.90
2019,04,27,06,10,1.90
2019,04,27,06,11,1.90
2019,04,27,06,12,1.80
2019,04,27,06,13,1.80
2019,04,27,06,14,1.80
2019,04,27,06,15,1.80
2019,04,27,06,16,1.80
2019,04,27,06,17,1.80
2019,04,27,06,18,1.80
2019,04,27,06,19,1.80
2019,04,27,06,20,1.80
2019,04,27,06,21,1.80
2019,04,27,06,22,1.80
2019,04,27,06,23,1.80
2019,04,27,06,24,1.90
2019,04,27,06,25,1.90
2019,04,27,06,26,1.90
2019,04,27,06,27,1.90
2019,04,27,06,28,1.90
2019,04,27,06,29,2.00
2019,04,27,06,30,2.00
2019,04,27,06,31,2.00
2019,04,27,06,32,2.00
2019,04,27,06,33,2.00
2019,04,27,06,34,2.00
2019,04,27,06,35,1.90
2019,04,27,06,36,1.90
2019,04,27,06,37,1.90
2019,04,27,06,38,1.90
2019,04,27,06,39,1.90
2019,04,27,06,40,1.80
2019,04,27,06,41,1.80
2019,04,27,06,42,1.80
2019,04,27,06,43,1.80
2019,04,27,06,44,1.80
2019,04,27,06,45,1.80
2019,04,27,06,46,1.80
2019,04,27,06,47,1.80
2019,04,27,06,48,1.80
2019,04,27,06,49,1.80
2019,04,27,06,50,1.70
2019,04,27,06,51,1.80
2019,04,27,06,52,1.80
2019,04,27,06,53,1.80
2019,04,27,06,54,1.80
2019,04,27,06,55,1.80
2019,04,27,06,56,1.80
2019,04,27,06,57,1.80
2019,04,27,06,58,1.80
2019,04,27,06,59,1.80
2019,04,27,07,00,1.80
2019,04,27,07,01,1.80
2019,04,27,07,02,1.80
2019,04,27,07,03,1.80
2019,04,27,07,04,1.80
2019,04,27,07,05,1.80
2019,04,27,07,06,1.80
2019,04,27,07,07,1.80
2019,04,27,07,08,1.80
2019,04,27,07,09,1.80
2019,04,27,07,10,1.80
2019,04,27,07,11,1.80
2019,04,27,07,12,1.90
2019,04,27,07,13,1.90
2019,04,27,07,14,1.90
2019,04,27,07,15,2.00
2019,04,27,07,16,2.00
2019,04,27,07,17,2.10
2019,04,27,07,18,2.20
2019,04,27,07,19,2.30
2019,04,27,07,20,2.40
2019,04,27,07,21,2.50
2019,04,27,07,22,2.60
2019,04,27,07,23,2.80
2019,04,27,07,24,2.90
2019,04,27,07,25,3.00
2019,04,27,07,26,3.10
2019,04,27,07,27,3.20
2019,04,27,07,28,3.20
2019,04,27,07,29,3.30
2019,04,27,07,30,3.40
2019,04,27,07,31,3.50
2019,04,27,07,32,3.60
2019,04,27,07,33,3.70
2019,04,27,07,34,3.80
2019,04,27,07,35,3.90
2019,04,27,07,36,4.10
2019,04,27,07,37,4.20
2019,04,27,07,38,4.30
2019,04,27,07,39,4.50
2019,04,27,07,40,4.60
2019,04,27,07,41,4.70
2019,04,27,07,42,4.80
2019,04,27,07,43,4.90
2019,04,27,07,44,5.00
2019,04,27,07,45,5.10
2019,04,27,07,46,5.20
2019,04,27,07,47,5.30
2019,04,27,07,48,5.30
2019,04,27,07,49,5.40
2019,04,27,07,50,5.50
2019,04,27,07,51,5.60
2019,04,27,07,52,5.80
2019,04,27,07,53,5.90
2019,04,27,07,54,6.00
2019,04,27,07,55,6.10
2019,04,27,07,56,6.20
2019,04,27,07,57,6.30
2019,04,27,07,58,6.40
2019,04,27,07,59,6.50
2019,04,27,08,00,6.50
2019,04,27,08,01,6.50
2019,04,27,08,02,6.50
2019,04,27,08,03,6.50
2019,04,27,08,04,6.60
2019,04,27,08,05,6.60
2019,04,27,08,06,6.70
2019,04,27,08,07,6.70
2019,04,27,08,08,6.80
2019,04,27,08,09,6.90
2019,04,27,08,10,6.90
2019,04,27,08,11,7.00
2019,04,27,08,12,7.10
2019,04,27,08,13,7.10
2019,04,27,08,14,7.20
2019,04,27,08,15,7.20
2019,04,27,08,16,7.30
2019,04,27,08,17,7.30
2019,04,27,08,18,7.40
2019,04,27,08,19,7.40
2019,04,27,08,20,7.50
2019,04,27,08,21,7.50
2019,04,27,08,22,7.60
2019,04,27,08,23,7.60
2019,04,27,08,24,7.60
2019,04,27,08,25,7.70
2019,04,27,08,26,7.80
2019,04,27,08,27,7.80
2019,04,27,08,28,7.90
2019,04,27,08,29,8.00
2019,04,27,08,30,8.10
2019,04,27,08,31,8.10
2019,04,27,08,32,8.20
2019,04,27,08,33,8.20
2019,04,27,08,34,8.20
2019,04,27,08,35,8.20
2019,04,27,08,36,8.20
2019,04,27,08,37,8.20
2019,04,27,08,38,8.20
2019,04,27,08,39,8.20
2019,04,27,08,40,8.30
2019,04,27,08,41,8.30
2019,04,27,08,42,8.40
2019,04,27,08,43,8.40
2019,04,27,08,44,8.40
2019,04,27,08,45,8.40
2019,04,27,08,46,8.40
2019,04,27,08,47,8.40
2019,04,27,08,48,8.40
2019,04,27,08,49,8.50
2019,04,27,08,50,8.50
2019,04,27,08,51,8.50
2019,04,27,08,52,8.60
2019,04,27,08,53,8.60
2019,04,27,08,54,8.70
2019,04,27,08,55,8.70
2019,04,27,08,56,8.70
2019,04,27,08,57,8.80
2019,04,27,08,58,8.90
2019,04,27,08,59,9.00
2019,04,27,09,00,9.00
2019,04,27,09,01,9.10
2019,04,27,09,02,9.10
2019,04,27,09,03,9.10
2019,04,27,09,04,9.20
2019,04,27,09,05,9.20
2019,04,27,09,06,9.20
2019,04,27,09,07,9.30
2019,04,27,09,08,9.30
2019,04,27,09,09,9.30
2019,04,27,09,10,9.40
2019,04,27,09,11,9.50
2019,04,27,09,12,9.50
2019,04,27,09,13,9.60
2019,04,27,09,14,9.60
2019,04,27,09,15,9.70
2019,04,27,09,16,9.70
2019,04,27,09,17,9.80
2019,04,27,09,18,9.80
2019,04,27,09,19,9.90
2019,04,27,09,20,9.90
2019,04,27,09,21,10.00
2019,04,27,09,22,10.00
2019,04,27,09,23,10.00
2019,04,27,09,24,10.00
2019,04,27,09,25,9.90
2019,04,27,09,26,9.90
2019,04,27,09,27,9.90
2019,04,27,09,28,9.90
2019,04,27,09,29,9.80
2019,04,27,09,30,9.80
2019,04,27,09,31,9.80
2019,04,27,09,32,9.80
2019,04,27,09,33,9.80
2019,04,27,09,34,9.80
2019,04,27,09,35,9.80
2019,04,27,09,36,9.80
2019,04,27,09,37,9.80
2019,04,27,09,38,9.90
2019,04,27,09,39,10.00
2019,04,27,09,40,10.00
2019,04,27,09,41,10.00
2019,04,27,09,42,10.10
2019,04,27,09,43,10.10
2019,04,27,09,44,10.10
2019,04,27,09,45,10.20
2019,04,27,09,46,10.30
2019,04,27,09,47,10.40
2019,04,27,09,48,10.40
2019,04,27,09,49,10.40
2019,04,27,09,50,10.40
2019,04,27,09,51,10.40
2019,04,27,09,52,10.40
2019,04,27,09,53,10.40
2019,04,27,09,54,10.40
2019,04,27,09,55,10.40
2019,04,27,09,56,10.40
2019,04,27,09,57,10.40
2019,04,27,09,58,10.30
2019,04,27,09,59,10.30
2019,04,27,10,00,10.40
2019,04,27,10,01,10.40
2019,04,27,10,02,10.40
2019,04,27,10,03,10.50
2019,04,27,10,04,10.60
2019,04,27,10,05,10.60
2019,04,27,10,06,10.70
2019,04,27,10,07,10.80
2019,04,27,10,08,10.90
2019,04,27,10,09,10.90
2019,04,27,10,10,11.00
2019,04,27,10,11,11.00
2019,04,27,10,12,11.10
2019,04,27,10,13,11.20
2019,04,27,10,14,11.10
2019,04,27,10,15,11.10
2019,04,27,10,16,11.00
2019,04,27,10,17,11.10
2019,04,27,10,18,11.10
2019,04,27,10,19,11.20
2019,04,27,10,20,11.20
2019,04,27,10,21,11.10
2019,04,27,10,22,11.10
2019,04,27,10,23,11.00
2019,04,27,10,24,10.90
2019,04,27,10,25,10.80
2019,04,27,10,26,10.70
2019,04,27,10,27,10.70
2019,04,27,10,28,10.70
2019,04,27,10,29,10.70
2019,04,27,10,30,10.70
2019,04,27,10,31,10.80
2019,04,27,10,32,10.90
2019,04,27,10,33,11.00
2019,04,27,10,34,11.10
2019,04,27,10,35,11.10
2019,04,27,10,36,11.00
2019,04,27,10,37,11.00
2019,04,27,10,38,10.90
2019,04,27,10,39,10.90
2019,04,27,10,40,10.80
2019,04,27,10,41,10.80
2019,04,27,10,42,10.80
2019,04,27,10,43,10.80
2019,04,27,10,44,10.90
2019,04,27,10,45,11.00
2019,04,27,10,46,11.00
2019,04,27,10,47,11.10
2019,04,27,10,48,11.10
2019,04,27,10,49,11.00
2019,04,27,10,50,11.00
2019,04,27,10,51,11.00
2019,04,27,10,52,11.00
2019,04,27,10,53,11.10
2019,04,27,10,54,11.10
2019,04,27,10,55,11.10
2019,04,27,10,56,11.10
2019,04,27,10,57,11.10
2019,04,27,10,58,11.10
2019,04,27,10,59,11.10
2019,04,27,11,00,11.20
2019,04,27,11,01,11.20
2019,04,27,11,02,11.20
2019,04,27,11,03,11.20
2019,04,27,11,04,11.20
2019,04,27,11,05,11.20
2019,04,27,11,06,11.20
2019,04,27,11,07,11.20
2019,04,27,11,08,11.30
2019,04,27,11,09,11.30
2019,04,27,11,10,11.30
2019,04,27,11,11,11.30
2019,04,27,11,12,11.30
2019,04,27,11,13,11.20
2019,04,27,11,14,11.20
2019,04,27,11,15,11.10
2019,04,27,11,16,11.10
2019,04,27,11,17,11.20
2019,04,27,11,18,11.20
2019,04,27,11,19,11.30
2019,04,27,11,20,11.30
2019,04,27,11,21,11.30
2019,04,27,11,22,11.30
2019,04,27,11,23,11.30
2019,04,27,11,24,11.40
2019,04,27,11,25,11.40
2019,04,27,11,26,11.40
2019,04,27,11,27,11.40
2019,04,27,11,28,11.30
2019,04,27,11,29,11.40
2019,04,27,11,30,11.40
2019,04,27,11,31,11.40
2019,04,27,11,32,11.40
2019,04,27,11,33,11.50
2019,04,27,11,34,11.50
2019,04,27,11,35,11.40
2019,04,27,11,36,11.30
2019,04,27,11,37,11.30
2019,04,27,11,38,11.30
2019,04,27,11,39,11.30
2019,04,27,11,40,11.10
2019,04,27,11,41,11.00
2019,04,27,11,42,10.90
2019,04,27,11,43,10.70
2019,04,27,11,44,10.60
2019,04,27,11,45,10.60
2019,04,27,11,46,10.60
2019,04,27,11,47,10.60
2019,04,27,11,48,10.60
2019,04,27,11,49,10.70
2019,04,27,11,50,10.70
2019,04,27,11,51,10.80
2019,04,27,11,52,10.90
2019,04,27,11,53,10.90
2019,04,27,11,54,10.80
2019,04,27,11,55,10.80
2019,04,27,11,56,10.80
2019,04,27,11,57,10.80
2019,04,27,11,58,10.70
2019,04,27,11,59,10.80
2019,04,27,12,00,10.70
2019,04,27,12,01,10.80
2019,04,27,12,02,10.80
2019,04,27,12,03,10.90
2019,04,27,12,04,10.90
2019,04,27,12,05,11.00
2019,04,27,12,06,11.10
2019,04,27,12,07,11.20
2019,04,27,12,08,11.20
2019,04,27,12,09,11.20
2019,04,27,12,10,11.20
2019,04,27,12,11,11.30
2019,04,27,12,12,11.30
2019,04,27,12,13,11.30
2019,04,27,12,14,11.30
2019,04,27,12,15,11.30
2019,04,27,12,16,11.30
2019,04,27,12,17,11.30
2019,04,27,12,18,11.30
2019,04,27,12,19,11.30
2019,04,27,12,20,11.30
2019,04,27,12,21,11.30
2019,04,27,12,22,11.40
2019,04,27,12,23,11.40
2019,04,27,12,24,11.40
2019,04,27,12,25,11.40
2019,04,27,12,26,11.40
2019,04,27,12,27,11.40
2019,04,27,12,28,11.30
2019,04,27,12,29,11.30
2019,04,27,12,30,11.30
2019,04,27,12,31,11.40
2019,04,27,12,32,11.40
2019,04,27,12,33,11.50
2019,04,27,12,34,11.60
2019,04,27,12,35,11.70
2019,04,27,12,36,11.70
2019,04,27,12,37,11.80
2019,04,27,12,38,11.90
2019,04,27,12,39,11.80
2019,04,27,12,40,11.80
2019,04,27,12,41,11.80
2019,04,27,12,42,11.70
2019,04,27,12,43,11.80
2019,04,27,12,44,11.80
2019,04,27,12,45,11.80
2019,04,27,12,46,11.80
2019,04,27,12,47,11.90
2019,04,27,12,48,11.90
2019,04,27,12,49,11.90
2019,04,27,12,50,11.90
2019,04,27,12,51,11.90
2019,04,27,12,52,11.80
2019,04,27,12,53,11.80
2019,04,27,12,54,11.70
2019,04,27,12,55,11.60
2019,04,27,12,56,11.60
2019,04,27,12,57,11.60
2019,04,27,12,58,11.60
2019,04,27,12,59,11.70
2019,04,27,13,00,11.70
2019,04,27,13,01,11.70
2019,04,27,13,02,11.80
2019,04,27,13,03,11.80
2019,04,27,13,04,11.80
2019,04,27,13,05,11.80
2019,04,27,13,06,11.90
2019,04,27,13,07,11.90
2019,04,27,13,08,12.00
2019,04,27,13,09,12.00
2019,04,27,13,10,12.10
2019,04,27,13,11,12.10
2019,04,27,13,12,12.20
2019,04,27,13,13,12.20
2019,04,27,13,14,12.20
2019,04,27,13,15,12.10
2019,04,27,13,16,12.00
2019,04,27,13,17,12.00
2019,04,27,13,18,12.00
2019,04,27,13,19,11.90
2019,04,27,13,20,11.90
2019,04,27,13,21,11.90
2019,04,27,13,22,12.00
2019,04,27,13,23,12.00
2019,04,27,13,24,12.10
2019,04,27,13,25,12.10
2019,04,27,13,26,12.10
2019,04,27,13,27,12.20
2019,04,27,13,28,12.20
2019,04,27,13,29,12.20
2019,04,27,13,30,12.20
2019,04,27,13,31,12.20
2019,04,27,13,32,12.20
2019,04,27,13,33,12.20
2019,04,27,13,34,12.20
2019,04,27,13,35,12.10
2019,04,27,13,36,12.00
2019,04,27,13,37,11.90
2019,04,27,13,38,12.00
2019,04,27,13,39,12.00
2019,04,27,13,40,12.00
2019,04,27,13,41,11.90
2019,04,27,13,42,12.00
2019,04,27,13,43,12.00
2019,04,27,13,44,12.10
2019,04,27,13,45,12.00
2019,04,27,13,46,12.00
2019,04,27,13,47,12.00
2019,04,27,13,48,12.00
2019,04,27,13,49,12.10
2019,04,27,13,50,12.20
2019,04,27,13,51,12.10
2019,04,27,13,52,12.00
2019,04,27,13,53,11.90
2019,04,27,13,54,11.90
2019,04,27,13,55,12.00
2019,04,27,13,56,12.00
2019,04,27,13,57,12.10
2019,04,27,13,58,12.20
2019,04,27,13,59,12.20
2019,04,27,14,00,12.20
2019,04,27,14,01,12.20
2019,04,27,14,02,12.30
2019,04,27,14,03,12.30
2019,04,27,14,04,12.40
2019,04,27,14,05,12.40
2019,04,27,14,06,12.50
2019,04,27,14,07,12.70
2019,04,27,14,08,12.70
2019,04,27,14,09,12.80
2019,04,27,14,10,12.80
2019,04,27,14,11,12.80
2019,04,27,14,12,12.80
2019,04,27,14,13,12.70
2019,04,27,14,14,12.70
2019,04,27,14,15,12.70
2019,04,27,14,16,12.70
2019,04,27,14,17,12.60
2019,04,27,14,18,12.60
2019,04,27,14,19,12.60
2019,04,27,14,20,12.70
2019,04,27,14,21,12.70
2019,04,27,14,22,12.80
2019,04,27,14,23,12.90
2019,04,27,14,24,13.00
2019,04,27,14,25,13.10
2019,04,27,14,26,13.10
2019,04,27,14,27,13.00
2019,04,27,14,28,13.00
2019,04,27,14,29,13.00
2019,04,27,14,30,12.90
2019,04,27,14,31,12.80
2019,04,27,14,32,12.70
2019,04,27,14,33,12.70
2019,04,27,14,34,12.80
2019,04,27,14,35,12.80
2019,04,27,14,36,12.80
2019,04,27,14,37,12.90
2019,04,27,14,38,12.90
2019,04,27,14,39,12.80
2019,04,27,14,40,12.70
2019,04,27,14,41,12.70
2019,04,27,14,42,12.80
2019,04,27,14,43,12.90
2019,04,27,14,44,13.00
2019,04,27,14,45,13.00
2019,04,27,14,46,13.10
2019,04,27,14,47,13.10
2019,04,27,14,48,13.10
2019,04,27,14,49,13.00
2019,04,27,14,50,13.00
2019,04,27,14,51,13.00
2019,04,27,14,52,13.00
2019,04,27,14,53,13.00
2019,04,27,14,54,13.10
2019,04,27,14,55,13.10
2019,04,27,14,56,13.10
2019,04,27,14,57,13.00
2019,04,27,14,58,13.00
2019,04,27,14,59,13.00
2019,04,27,15,00,12.90
2019,04,27,15,01,12.90
2019,04,27,15,02,13.00
2019,04,27,15,03,13.00
2019,04,27,15,04,13.10
2019,04,27,15,05,13.10
2019,04,27,15,06,13.10
2019,04,27,15,07,13.10
2019,04,27,15,08,13.10
2019,04,27,15,09,13.10
2019,04,27,15,10,13.20
2019,04,27,15,11,13.20
2019,04,27,15,12,13.20
2019,04,27,15,13,13.30
2019,04,27,15,14,13.20
2019,04,27,15,15,13.10
2019,04,27,15,16,13.10
2019,04,27,15,17,13.00
2019,04,27,15,18,13.00
2019,04,27,15,19,12.90
2019,04,27,15,20,12.90
2019,04,27,15,21,12.80
2019,04,27,15,22,12.80
2019,04,27,15,23,12.90
2019,04,27,15,24,12.90
2019,04,27,15,25,13.00
2019,04,27,15,26,13.00
2019,04,27,15,27,13.10
2019,04,27,15,28,13.20
2019,04,27,15,29,13.30
2019,04,27,15,30,13.30
2019,04,27,15,31,13.30
2019,04,27,15,32,13.30
2019,04,27,15,33,13.30
2019,04,27,15,34,13.30
2019,04,27,15,35,13.30
2019,04,27,15,36,13.30
2019,04,27,15,37,13.30
2019,04,27,15,38,13.30
2019,04,27,15,39,13.40
2019,04,27,15,40,13.40
2019,04,27,15,41,13.40
2019,04,27,15,42,13.40
2019,04,27,15,43,13.30
2019,04,27,15,44,13.30
2019,04,27,15,45,13.20
2019,04,27,15,46,13.20
2019,04,27,15,47,13.20
2019,04,27,15,48,13.20
2019,04,27,15,49,13.20
2019,04,27,15,50,13.10
2019,04,27,15,51,13.10
2019,04,27,15,52,13.10
2019,04,27,15,53,13.00
2019,04,27,15,54,12.90
2019,04,27,15,55,12.90
2019,04,27,15,56,12.90
2019,04,27,15,57,13.00
2019,04,27,15,58,13.00
2019,04,27,15,59,13.10
2019,04,27,16,00,13.30
2019,04,27,16,01,13.30
2019,04,27,16,02,13.40
2019,04,27,16,03,13.30
2019,04,27,16,04,13.20
2019,04,27,16,05,13.20
2019,04,27,16,06,13.20
2019,04,27,16,07,13.20
2019,04,27,16,08,13.20
2019,04,27,16,09,13.20
2019,04,27,16,10,13.20
2019,04,27,16,11,13.20
2019,04,27,16,12,13.10
2019,04,27,16,13,13.10
2019,04,27,16,14,13.20
2019,04,27,16,15,13.30
2019,04,27,16,16,13.30
2019,04,27,16,17,13.30
2019,04,27,16,18,13.40
2019,04,27,16,19,13.40
2019,04,27,16,20,13.50
2019,04,27,16,21,13.40
2019,04,27,16,22,13.20
2019,04,27,16,23,13.20
2019,04,27,16,24,13.20
2019,04,27,16,25,13.20
2019,04,27,16,26,13.20
2019,04,27,16,27,13.20
2019,04,27,16,28,13.30
2019,04,27,16,29,13.20
2019,04,27,16,30,13.20
2019,04,27,16,31,13.20
2019,04,27,16,32,13.10
2019,04,27,16,33,13.20
2019,04,27,16,34,13.20
2019,04,27,16,35,13.20
2019,04,27,16,36,13.30
2019,04,27,16,37,13.30
2019,04,27,16,38,13.30
2019,04,27,16,39,13.30
2019,04,27,16,40,13.30
2019,04,27,16,41,13.30
2019,04,27,16,42,13.30
2019,04,27,16,43,13.30
2019,04,27,16,44,13.30
2019,04,27,16,45,13.30
2019,04,27,16,46,13.30
2019,04,27,16,47,13.30
2019,04,27,16,48,13.30
2019,04,27,16,49,13.40
2019,04,27,16,50,13.50
2019,04,27,16,51,13.50
2019,04,27,16,52,13.60
2019,04,27,16,53,13.50
2019,04,27,16,54,13.50
2019,04,27,16,55,13.50
2019,04,27,16,56,13.50
2019,04,27,16,57,13.50
2019,04,27,16,58,13.40
2019,04,27,16,59,13.40
2019,04,27,17,00,13.40
2019,04,27,17,01,13.40
2019,04,27,17,02,13.40
2019,04,27,17,03,13.30
2019,04,27,17,04,13.30
2019,04,27,17,05,13.30
2019,04,27,17,06,13.30
2019,04,27,17,07,13.30
2019,04,27,17,08,13.30
2019,04,27,17,09,13.30
2019,04,27,17,10,13.30
2019,04,27,17,11,13.20
2019,04,27,17,12,13.20
2019,04,27,17,13,13.20
2019,04,27,17,14,13.20
2019,04,27,17,15,13.20
2019,04,27,17,16,13.20
2019,04,27,17,17,13.20
2019,04,27,17,18,13.30
2019,04,27,17,19,13.30
2019,04,27,17,20,13.30
2019,04,27,17,21,13.40
2019,04,27,17,22,13.30
2019,04,27,17,23,13.30
2019,04,27,17,24,13.30
2019,04,27,17,25,13.20
2019,04,27,17,26,13.20
2019,04,27,17,27,13.10
2019,04,27,17,28,13.10
2019,04,27,17,29,13.10
2019,04,27,17,30,13.10
2019,04,27,17,31,13.10
2019,04,27,17,32,13.10
2019,04,27,17,33,13.10
2019,04,27,17,34,13.10
2019,04,27,17,35,13.20
2019,04,27,17,36,13.20
2019,04,27,17,37,13.20
2019,04,27,17,38,13.20
2019,04,27,17,39,13.30
2019,04,27,17,40,13.20
2019,04,27,17,41,13.20
2019,04,27,17,42,13.20
2019,04,27,17,43,13.20
2019,04,27,17,44,13.30